Location: Misciano
(43.5000°N, 11.9500°E)
Time: 16:12:21
(UTC+00:00)

Cosmos 2333 Rocket - Pass Details

Date: 13 August 2020
Orbit: 838 x 864 km, 70.8° (Epoch: 25 September)

Event Time Altitude Azimuth Distance (km) Brightness Sun altitude
Rises 23:15:58 0° 325° (NW) 3,451 6.1 -32.2°
Reaches altitude 10° 23:18:43 10° 315° (NW) 2,508 5.1 -32.2°
Enters shadow 23:21:46 24° 288° (WNW) 1,699 3.8 -32.2°
